[[{"header":{"parameterUnit":"m.s-1","parameterCategory":1,"la1":30.2991,"la2":30.254,"lo1":-89.0895,"lo2":-89.0444,"dy":0.0017,"dx":0.0017,"nx":28,"ny":28,"refTime":"2025-03-20T09:00:00:Z","depth":0,"parameterNumber":2,"parameterNumberName":"U-component_of_WINDS"},"data":[0,0,0,0,0,0,0,0,0,0,0,0,0,0,0,0,0,0,0,0,0,0,0,0,0,0,0,0,0,0,0,0,0,0,0,0,0,0,0,0,0,0,0,0,0,0,0,0,0,0,0,0,0,0,0,0,0,0,-0.262,-0.2619,0,-0.2548,-0.2547,-0.2546,-0.2496,-0.2495,-0.2495,-0.2495,-0.242,-0.2418,-0.2416,0,0,0,0,0,0,0,0,0,0,0,0,0,-0.2714,-0.2713,-0.262,-0.2619,-0.2618,-0.2548,-0.2547,-0.2546,-0.2496,-0.2495,-0.2495,-0.2494,-0.242,-0.2418,-0.2416,0,0,0,0,0,0,0,0,0,0,0,0,0,-0.2661,-0.2712,-0.262,-0.2585,-0.2581,-0.2548,-0.2547,-0.2545,-0.2496,-0.2495,-0.2495,-0.2494,-0.2421,-0.2418,-0.2416,-0.2412,0,0,-0.2408,-0.2407,0,0,0,0,0,0,0,0,-0.2664,-0.2657,-0.2591,-0.2587,-0.2582,-0.253,-0.2552,-0.2501,-0.2496,-0.2528,-0.2495,-0.2494,-0.2457,-0.2451,-0.2439,-0.2409,-0.2405,-0.2408,-0.2407,-0.2406,-0.2405,0,0,0,0,0,0,0,-0.2668,-0.266,-0.2591,-0.259,-0.2585,-0.2572,-0.2564,-0.2542,-0.2496,-0.2525,-0.2521,-0.2514,-0.2454,-0.2441,-0.2437,-0.2404,-0.2408,-0.2406,-0.2405,-0.2404,-0.2369,-0.2369,0,0,0,0,0,0,-0.2677,-0.2663,-0.2593,-0.2589,-0.2623,-0.2571,-0.2562,-0.2547,-0.2497,-0.2488,-0.2514,-0.2512,-0.2446,-0.244,-0.2434,-0.2427,-0.2406,-0.2403,-0.2402,-0.2368,-0.2369,-0.237,0,0,0,0,0,0,-0.2679,-0.2671,-0.2596,-0.2625,-0.2615,-0.257,-0.2554,-0.2546,-0.2533,-0.2488,-0.248,-0.2509,-0.2445,-0.2437,-0.2418,-0.2423,-0.2402,-0.24,-0.2368,-0.2368,-0.2369,-0.2412,0,0,0,0,0,0,-0.2682,-0.2672,-0.267,-0.2626,-0.2613,-0.2582,-0.2555,-0.2545,-0.2529,-0.2525,-0.2481,-0.2474,-0.2444,-0.2422,-0.2416,-0.242,-0.2398,-0.2367,-0.2368,-0.2369,-0.241,-0.2414,-0.2418,0,0,0,0,0,-0.2686,-0.2684,-0.267,-0.2662,-0.261,-0.2582,-0.2575,-0.2542,-0.253,-0.2528,-0.2499,-0.2475,-0.2424,-0.2421,-0.2413,-0.2416,-0.2366,-0.2368,-0.2369,-0.2408,-0.2414,-0.2418,0,0,0,0,0,0,-0.273,-0.2678,-0.2661,-0.2646,-0.2619,-0.2574,-0.257,-0.2548,-0.2524,-0.2521,-0.248,-0.247,-0.2456,-0.2434,-0.2431,-0.2411,-0.2392,-0.2392,-0.2425,-0.243,-0.2434,-0.2439,-0.2396,0,0,0,0,0,-0.2738,-0.272,-0.2676,-0.2666,-0.2654,-0.2614,-0.2601,-0.2578,-0.2548,-0.2536,-0.2506,-0.2478,-0.2456,-0.2442,-0.2418,-0.2407,-0.2397,-0.2406,-0.241,-0.2413,-0.2413,-0.2407,-0.241,-0.2374,-0.2374,-0.2374,0,0,-0.2754,-0.2724,-0.2714,-0.2674,-0.2651,-0.2633,-0.2605,-0.2587,-0.2574,-0.2533,-0.2513,-0.2491,-0.2457,-0.2442,-0.2434,-0.2423,-0.2422,-0.2415,-0.2418,-0.2416,-0.2409,-0.2412,-0.2415,-0.2374,-0.2374,-0.2374,0,0,-0.2775,-0.275,-0.274,-0.2717,-0.2682,-0.2656,-0.2654,-0.2613,-0.2596,-0.2576,-0.2546,-0.2529,-0.2492,-0.2469,-0.2453,-0.2467,-0.2445,-0.2461,-0.2481,-0.2476,-0.2479,-0.2481,-0.2487,-0.2489,-0.2461,-0.2462,-0.2462,0,-0.2799,-0.2771,-0.2737,-0.2721,-0.2705,-0.2669,-0.2659,-0.2638,-0.2598,-0.2587,-0.2577,-0.253,-0.2504,-0.2484,-0.2488,-0.2476,-0.2472,-0.2465,-0.2481,-0.2483,-0.2485,-0.249,-0.2492,-0.2464,-0.2464,-0.2463,-0.2463,0,-0.2803,-0.2785,-0.2781,-0.2744,-0.2727,-0.2714,-0.2678,-0.2665,-0.2644,-0.262,-0.2601,-0.2569,-0.254,-0.2534,-0.2512,-0.2511,-0.2506,-0.2489,-0.2469,-0.2491,-0.2495,-0.2497,-0.2467,-0.2466,-0.2465,-0.2465,0,0,-0.2848,-0.2793,-0.2792,-0.2775,-0.2735,-0.272,-0.2707,-0.2679,-0.2669,-0.2643,-0.263,-0.26,-0.2585,-0.2566,-0.2543,-0.2538,-0.2552,-0.2521,-0.252,-0.2528,-0.255,-0.2563,-0.2565,-0.2538,-0.2538,-0.2538,-0.2553,0,-0.2862,-0.2835,-0.2805,-0.2789,-0.2772,-0.2738,-0.2727,-0.2701,-0.2679,-0.2661,-0.2636,-0.2616,-0.2596,-0.2585,-0.2579,-0.2552,-0.2556,-0.255,-0.2526,-0.2525,-0.2535,-0.2567,-0.258,-0.2595,-0.2554,-0.2554,-0.2554,0,-0.2874,-0.2851,-0.2833,-0.2796,-0.2788,-0.2778,-0.2751,-0.2734,-0.2705,-0.2689,-0.267,-0.2645,-0.2629,-0.2613,-0.2592,-0.2589,-0.2577,-0.2563,-0.2562,-0.2558,-0.254,-0.2564,-0.2599,-0.2602,-0.2556,-0.2556,-0.2556,0,-0.2909,-0.2873,-0.2858,-0.2844,-0.2801,-0.2795,-0.2776,-0.2746,-0.2732,-0.2709,-0.2699,-0.2674,-0.266,-0.2641,-0.2611,-0.2602,-0.2593,-0.2574,-0.2579,-0.258,-0.2577,-0.2578,-0.2611,-0.2571,-0.2571,-0.2571,-0.2571,0,-0.2927,-0.2918,-0.2873,-0.2864,-0.2853,-0.2819,-0.2809,-0.2787,-0.2762,-0.2748,-0.2718,-0.2706,-0.2666,-0.265,-0.2626,-0.2612,-0.2606,-0.2592,-0.2586,-0.2595,-0.2597,-0.2586,-0.2584,-0.2571,-0.2571,-0.2571,-0.2571,0,-0.2963,-0.2933,-0.2914,-0.2875,-0.2865,-0.2859,-0.2825,-0.2816,-0.2792,-0.2776,-0.277,-0.2733,-0.2712,-0.268,-0.2649,-0.2633,-0.2623,-0.2613,-0.2633,-0.263,-0.2637,-0.2637,-0.2664,-0.2666,-0.2625,-0.2626,-0.2626,0,-0.2977,-0.2969,-0.293,-0.2919,-0.2901,-0.2884,-0.287,-0.2837,-0.2823,-0.279,-0.2785,-0.2762,-0.2741,-0.271,-0.268,-0.2657,-0.2646,-0.2658,-0.2642,-0.2652,-0.2646,-0.2647,-0.2646,-0.2661,-0.2661,-0.2662,-0.2662,0,-0.3004,-0.299,-0.2971,-0.2947,-0.2931,-0.291,-0.2888,-0.2881,-0.2843,-0.2829,-0.2808,-0.2793,-0.2762,-0.274,-0.2713,-0.2694,-0.2672,-0.2668,-0.2668,-0.2676,-0.2688,-0.2682,-0.2643,-0.2667,-0.2666,-0.2666,-0.2666,-0.2666,-0.3029,-0.3021,-0.2993,-0.2973,-0.2953,-0.2933,-0.2923,-0.2899,-0.2881,-0.2853,-0.2835,-0.2815,-0.2788,-0.275,-0.2732,-0.2717,-0.2707,-0.2707,-0.2707,-0.2707,-0.2711,-0.2692,-0.2712,-0.2711,-0.2711,-0.2711,-0.2711,0,-0.3055,-0.3036,-0.3018,-0.2988,-0.2973,-0.2955,-0.293,-0.2918,-0.2901,-0.2878,-0.2859,-0.2835,-0.2814,-0.2784,-0.2761,-0.2754,-0.2744,-0.2749,-0.2749,-0.2745,-0.272,-0.2723,-0.2758,-0.2758,-0.2758,-0.2758,-0.2758,-0.2758,-0.3067,-0.3053,-0.3036,-0.3012,-0.2992,-0.2973,-0.2961,-0.2943,-0.2924,-0.2899,-0.2882,-0.2863,-0.2837,-0.2812,-0.2792,-0.2784,-0.2777,-0.2785,-0.2774,-0.2751,-0.2747,-0.2743,-0.2745,-0.2784,-0.2784,-0.28,-0.28,-0.28]},{"header":{"parameterUnit":"m.s-1","parameterCategory":1,"la1":30.2991,"la2":30.254,"lo1":-89.0895,"lo2":-89.0444,"dy":0.0017,"dx":0.0017,"nx":28,"ny":28,"refTime":"2025-03-20T09:00:00:Z","depth":0,"parameterNumber":3,"parameterNumberName":"V-component_of_WINDS"},"data":[0,0,0,0,0,0,0,0,0,0,0,0,0,0,0,0,0,0,0,0,0,0,0,0,0,0,0,0,0,0,0,0,0,0,0,0,0,0,0,0,0,0,0,0,0,0,0,0,0,0,0,0,0,0,0,0,0,0,3.338,3.3379,0,3.3326,3.3326,3.3325,3.3322,3.3323,3.3323,3.3324,3.3263,3.3261,3.3259,0,0,0,0,0,0,0,0,0,0,0,0,0,3.3474,3.3472,3.338,3.3379,3.3378,3.3326,3.3326,3.3325,3.3322,3.3323,3.3323,3.3324,3.3264,3.3261,3.3258,0,0,0,0,0,0,0,0,0,0,0,0,0,3.3428,3.3472,3.338,3.3371,3.3369,3.3326,3.3325,3.3325,3.3322,3.3323,3.3324,3.3324,3.3265,3.3261,3.3258,3.3219,0,0,3.3248,3.3247,0,0,0,0,0,0,0,0,3.3431,3.3424,3.3373,3.3371,3.337,3.3332,3.3337,3.3289,3.3321,3.334,3.3324,3.3325,3.3285,3.328,3.3267,3.3216,3.3213,3.3248,3.3246,3.3244,3.3243,0,0,0,0,0,0,0,3.3434,3.3427,3.3358,3.3372,3.337,3.3368,3.3362,3.3327,3.3307,3.3338,3.3338,3.3332,3.3284,3.3271,3.3266,3.3212,3.3248,3.3245,3.3243,3.3241,3.3126,3.3125,0,0,0,0,0,0,3.3439,3.3429,3.336,3.3357,3.3403,3.3365,3.3359,3.3343,3.3308,3.3303,3.3331,3.3332,3.3276,3.327,3.3264,3.3216,3.3244,3.3241,3.3239,3.3127,3.3125,3.3124,0,0,0,0,0,0,3.3442,3.3433,3.3362,3.3393,3.3384,3.3363,3.3344,3.3341,3.3328,3.3302,3.3298,3.3321,3.3276,3.3269,3.323,3.3213,3.324,3.3237,3.3128,3.3126,3.3125,3.3119,0,0,0,0,0,0,3.3444,3.3434,3.342,3.3393,3.3382,3.3331,3.3343,3.334,3.3323,3.3324,3.3292,3.3288,3.3277,3.3235,3.3227,3.3209,3.3234,3.3129,3.3127,3.3125,3.312,3.3117,3.3114,0,0,0,0,0,3.3448,3.3419,3.3419,3.3411,3.3365,3.333,3.3324,3.3313,3.3322,3.3307,3.329,3.3289,3.3217,3.3232,3.3222,3.3203,3.313,3.3128,3.3125,3.3121,3.3118,3.3114,0,0,0,0,0,0,3.3442,3.3415,3.3415,3.3377,3.3356,3.333,3.331,3.3309,3.3283,3.3285,3.3271,3.3263,3.3226,3.321,3.3227,3.3163,3.3174,3.317,3.3174,3.317,3.3168,3.3172,3.3231,0,0,0,0,0,3.3437,3.3414,3.339,3.3359,3.3349,3.3332,3.3316,3.331,3.3287,3.3277,3.3258,3.3234,3.3206,3.3187,3.316,3.3118,3.3111,3.31,3.3097,3.3095,3.3091,3.3068,3.3063,3.3116,3.3116,3.3116,0,0,3.3426,3.3408,3.3393,3.3358,3.3341,3.3315,3.3324,3.3296,3.3276,3.3272,3.3236,3.3221,3.3193,3.3153,3.3134,3.3139,3.3075,3.3092,3.309,3.3087,3.3065,3.306,3.3055,3.3115,3.3115,3.3115,0,0,3.3391,3.3376,3.3348,3.3332,3.3307,3.3296,3.3289,3.3263,3.3253,3.3217,3.3214,3.3189,3.3141,3.3121,3.3105,3.3065,3.3062,3.3056,3.304,3.3017,3.3013,3.3009,3.2994,3.2989,3.3052,3.3052,3.3052,0,3.3379,3.3342,3.3334,3.3306,3.329,3.3288,3.3259,3.3243,3.3209,3.3197,3.3204,3.3144,3.3125,3.3081,3.3071,3.3058,3.3049,3.3059,3.3015,3.3011,3.3007,3.2993,3.2987,3.3052,3.3052,3.3052,3.3052,0,3.3328,3.3303,3.3283,3.3253,3.3235,3.3207,3.3193,3.3175,3.3171,3.3159,3.3121,3.3099,3.3067,3.3056,3.305,3.3011,3.3015,3.3018,3.3029,3.3001,3.2988,3.2982,3.3051,3.3051,3.3051,3.3051,0,0,3.3288,3.3255,3.3248,3.3235,3.3208,3.3187,3.3158,3.313,3.3114,3.3091,3.3066,3.3027,3.303,3.3012,3.3004,3.2984,3.2953,3.299,3.2989,3.2983,3.2908,3.2905,3.2899,3.2952,3.2951,3.295,3.291,0,3.325,3.3202,3.3194,3.3151,3.3127,3.3124,3.3099,3.3079,3.3067,3.3043,3.3029,3.3001,3.3008,3.2997,3.2978,3.2961,3.2938,3.2964,3.2927,3.2926,3.2934,3.2892,3.2889,3.2852,3.2905,3.2904,3.2903,0,3.32,3.3178,3.3133,3.311,3.3099,3.3078,3.3051,3.3029,3.3005,3.2998,3.2978,3.2973,3.2942,3.2955,3.2911,3.293,3.2914,3.2904,3.2902,3.2897,3.2912,3.2886,3.284,3.2834,3.2894,3.2895,3.2896,0,3.3175,3.3134,3.3102,3.3091,3.3063,3.3047,3.3035,3.3013,3.2996,3.2972,3.2961,3.2933,3.2917,3.2895,3.2882,3.2892,3.2839,3.2851,3.2831,3.2831,3.2819,3.282,3.2769,3.281,3.281,3.281,3.281,0,3.3133,3.3106,3.3091,3.3071,3.304,3.303,3.2999,3.2986,3.2967,3.2943,3.2939,3.2917,3.2901,3.2876,3.2865,3.2831,3.2824,3.2816,3.2813,3.2816,3.2817,3.2805,3.2807,3.2808,3.2809,3.2809,3.2809,0,3.3099,3.3089,3.3054,3.3031,3.3025,3.3003,3.2982,3.2962,3.2951,3.2921,3.2914,3.2895,3.2866,3.2851,3.2813,3.2806,3.2767,3.2766,3.2776,3.2774,3.2755,3.2757,3.2695,3.2686,3.2733,3.2732,3.2732,0,3.3074,3.3053,3.3029,3.3014,3.3002,3.2977,3.2961,3.2951,3.2934,3.2906,3.2889,3.286,3.2836,3.2789,3.2771,3.2742,3.274,3.2721,3.2736,3.2739,3.274,3.2741,3.2739,3.2718,3.2717,3.2717,3.2717,0,3.3029,3.3025,3.3003,3.2979,3.296,3.294,3.292,3.2907,3.2894,3.2874,3.2846,3.2827,3.2791,3.2761,3.2732,3.2717,3.2714,3.2712,3.2706,3.2708,3.2715,3.2711,3.2768,3.2713,3.2714,3.2714,3.2714,3.2714,3.2998,3.2979,3.296,3.2935,3.292,3.2902,3.2882,3.2869,3.2846,3.2817,3.2811,3.2781,3.2758,3.2718,3.2702,3.2677,3.2681,3.2672,3.2669,3.2667,3.2666,3.272,3.2671,3.2671,3.2671,3.2671,3.2672,0,3.2953,3.294,3.2918,3.2892,3.2872,3.2874,3.2852,3.2835,3.2809,3.2789,3.2766,3.2733,3.2705,3.2685,3.2656,3.264,3.2638,3.2632,3.2633,3.263,3.2664,3.2673,3.2635,3.2635,3.2635,3.2635,3.2635,3.2635,3.2927,3.2896,3.289,3.2851,3.2838,3.281,3.2797,3.278,3.2764,3.2728,3.2706,3.2694,3.2674,3.2643,3.2617,3.2612,3.2601,3.2596,3.2591,3.2623,3.2627,3.2631,3.2639,3.2594,3.2594,3.2558,3.2558,3.2558]}]]